CFG1EK EDDS-LEPA

Flight info

Callsign CFG1EK
Flight time N/A
Altitude 35000
Route ROTWE1K ROTWE Y126 TUBLO N850 NATOR DCT LUTIX DCT BENOT DCT NEMOS DCT GEVEA DCT INCUS DCT BALSI DCT RETNO DCT TUPOX DCT MTG DCT DIVKO DCT VATIR DCT PIVUS DCT BODEQ DCT VERSO L129 LUNIK
Aircraft A21N/M-SBDE3FGHIJ1J4J7LORVWXYZ/SB2D1G1

Departure

Time N/A
Airport Stuttgart Airport (EDDS)

Arrival

Time 2026-05-05 11:27
Airport Palma de Mallorca Airport (LEPA)
Time Latitude Longitude Altitude Speed Heading
2026-05-05 09:50 48.52217 8.72251 15272 ft 360 kts 252°
2026-05-05 09:50 48.51547 8.68585 15781 ft 363 kts 252°
2026-05-05 09:50 48.50877 8.64897 16277 ft 365 kts 252°
2026-05-05 09:51 48.50208 8.61219 16777 ft 368 kts 252°
2026-05-05 09:51 48.49529 8.57486 17263 ft 370 kts 252°
2026-05-05 09:51 48.48856 8.53791 17732 ft 372 kts 252°
2026-05-05 09:51 48.48162 8.49995 18215 ft 374 kts 252°
2026-05-05 09:52 48.47395 8.46286 18641 ft 373 kts 244°
2026-05-05 09:52 48.45936 8.43079 19028 ft 370 kts 223°
2026-05-05 09:52 48.43882 8.40886 19468 ft 368 kts 205°
2026-05-05 09:52 48.41410 8.39745 19871 ft 369 kts 192°
2026-05-05 09:53 48.38907 8.38976 20288 ft 371 kts 191°
2026-05-05 09:53 48.36387 8.38196 20670 ft 374 kts 192°
2026-05-05 09:53 48.33810 8.37392 21056 ft 376 kts 192°
2026-05-05 09:53 48.31243 8.36587 21430 ft 379 kts 192°
2026-05-05 09:54 48.28655 8.35772 21815 ft 381 kts 192°
2026-05-05 09:54 48.26082 8.34961 22182 ft 383 kts 191°
2026-05-05 09:54 48.23460 8.34134 22560 ft 384 kts 191°
2026-05-05 09:54 48.20841 8.33308 22930 ft 386 kts 191°
2026-05-05 09:55 48.18247 8.32225 23259 ft 388 kts 198°
2026-05-05 09:55 48.15752 8.30642 23613 ft 391 kts 205°
2026-05-05 09:55 48.13422 8.28637 23965 ft 393 kts 210°
2026-05-05 09:55 48.11115 8.26429 24319 ft 395 kts 211°
2026-05-05 09:56 48.08797 8.24186 24643 ft 397 kts 211°
2026-05-05 09:56 48.06476 8.21938 24969 ft 398 kts 211°
2026-05-05 09:56 48.04164 8.19703 25291 ft 400 kts 211°
2026-05-05 09:56 48.01820 8.17443 25626 ft 401 kts 211°
2026-05-05 09:57 47.99457 8.15170 25910 ft 403 kts 211°
2026-05-05 09:57 47.97107 8.12910 26186 ft 405 kts 211°
2026-05-05 09:57 47.94749 8.10649 26481 ft 406 kts 210°
2026-05-05 09:57 47.92352 8.08354 26765 ft 408 kts 210°
2026-05-05 09:58 47.89969 8.06072 27048 ft 409 kts 210°
2026-05-05 09:58 47.87645 8.03563 27283 ft 414 kts 219°
2026-05-05 09:58 47.85606 8.00574 27582 ft 416 kts 223°
2026-05-05 09:58 47.83554 7.97534 27833 ft 416 kts 218°
2026-05-05 09:59 47.81185 7.95064 28086 ft 414 kts 209°
2026-05-05 09:59 47.78724 7.92906 28380 ft 414 kts 208°
2026-05-05 09:59 47.76202 7.90728 28640 ft 416 kts 208°
2026-05-05 09:59 47.73717 7.88550 28903 ft 417 kts 208°
2026-05-05 10:00 47.71240 7.86342 29145 ft 419 kts 208°
2026-05-05 10:00 47.68756 7.84103 29406 ft 420 kts 208°
2026-05-05 10:00 47.66244 7.81825 29636 ft 422 kts 208°
2026-05-05 10:00 47.63753 7.79558 29941 ft 421 kts 209°
2026-05-05 10:01 47.61249 7.77274 30307 ft 420 kts 209°
2026-05-05 10:01 47.58778 7.75021 30647 ft 418 kts 209°
2026-05-05 10:01 47.56303 7.72767 30974 ft 417 kts 208°
2026-05-05 10:01 47.53854 7.70537 31326 ft 415 kts 209°
2026-05-05 10:02 47.51405 7.68309 31692 ft 413 kts 209°
2026-05-05 10:02 47.48977 7.66102 32030 ft 411 kts 209°
2026-05-05 10:02 47.46548 7.63896 32364 ft 409 kts 209°
2026-05-05 10:02 47.44122 7.61697 32675 ft 408 kts 209°
2026-05-05 10:03 47.41716 7.59518 32956 ft 407 kts 209°
2026-05-05 10:03 47.39311 7.57341 33215 ft 406 kts 209°
2026-05-05 10:03 47.36891 7.55155 33462 ft 406 kts 209°
2026-05-05 10:03 47.34484 7.52982 33680 ft 406 kts 209°
2026-05-05 10:04 47.32100 7.50832 33875 ft 406 kts 209°
2026-05-05 10:04 47.29661 7.48638 34034 ft 408 kts 209°
2026-05-05 10:04 47.27243 7.46461 34201 ft 409 kts 209°
2026-05-05 10:04 47.24837 7.44297 34379 ft 409 kts 209°
2026-05-05 10:05 47.22439 7.42046 34568 ft 410 kts 212°
2026-05-05 10:05 47.20106 7.39619 34749 ft 411 kts 214°
2026-05-05 10:05 47.17852 7.37001 34865 ft 413 kts 217°
2026-05-05 10:05 47.15712 7.34227 34876 ft 416 kts 220°
2026-05-05 10:06 47.11694 7.28061 34893 ft 418 kts 226°
2026-05-05 10:06 47.08041 7.21421 34893 ft 419 kts 227°
2026-05-05 10:07 47.04397 7.14724 34899 ft 420 kts 228°
2026-05-05 10:07 47.00768 7.08079 34892 ft 419 kts 227°
2026-05-05 10:08 46.97122 7.01424 34900 ft 420 kts 227°
2026-05-05 10:08 46.93430 6.94800 34909 ft 419 kts 225°
2026-05-05 10:09 46.89400 6.88711 34907 ft 417 kts 220°
2026-05-05 10:09 46.85009 6.83267 34903 ft 415 kts 217°
2026-05-05 10:10 46.80538 6.77930 34899 ft 414 kts 217°
2026-05-05 10:10 46.76056 6.72595 34906 ft 414 kts 217°
2026-05-05 10:11 46.71601 6.67309 34900 ft 414 kts 217°
2026-05-05 10:11 46.67132 6.62021 34900 ft 415 kts 217°
2026-05-05 10:12 46.62656 6.56736 34903 ft 414 kts 217°
2026-05-05 10:12 46.58204 6.51491 34904 ft 414 kts 217°
2026-05-05 10:13 46.53711 6.46212 34912 ft 413 kts 217°
2026-05-05 10:13 46.49266 6.40997 34900 ft 413 kts 218°
2026-05-05 10:14 46.44807 6.35783 34901 ft 412 kts 218°
2026-05-05 10:14 46.40317 6.30543 34913 ft 412 kts 217°
2026-05-05 10:15 46.35856 6.25351 34927 ft 412 kts 217°
2026-05-05 10:15 46.31342 6.20224 34900 ft 412 kts 214°
2026-05-05 10:16 46.26421 6.15979 34904 ft 411 kts 206°
2026-05-05 10:16 46.21157 6.12918 34909 ft 411 kts 198°
2026-05-05 10:17 46.15573 6.11049 34919 ft 413 kts 190°
2026-05-05 10:17 46.09891 6.09763 34910 ft 412 kts 190°
2026-05-05 10:18 46.04237 6.08502 34911 ft 412 kts 190°
2026-05-05 10:18 45.98544 6.07238 34928 ft 412 kts 190°
2026-05-05 10:19 45.92880 6.05988 34928 ft 412 kts 191°
2026-05-05 10:19 45.87279 6.04750 34933 ft 411 kts 191°
2026-05-05 10:20 45.85419 6.04339 34928 ft 411 kts 191°
2026-05-05 10:20 45.76358 6.02328 34937 ft 410 kts 191°
2026-05-05 10:21 45.70713 6.01079 34932 ft 410 kts 191°
2026-05-05 10:21 45.65082 5.99847 34924 ft 409 kts 191°
2026-05-05 10:22 45.59456 5.98616 34928 ft 408 kts 192°
2026-05-05 10:22 45.53841 5.97389 34931 ft 407 kts 192°
2026-05-05 10:23 45.48237 5.96136 34916 ft 406 kts 194°
2026-05-05 10:23 45.42713 5.94445 34922 ft 405 kts 195°
2026-05-05 10:24 45.37194 5.92726 34927 ft 404 kts 195°
2026-05-05 10:24 45.31716 5.91022 34937 ft 404 kts 196°
2026-05-05 10:25 45.26231 5.89316 34939 ft 403 kts 196°
2026-05-05 10:25 45.20771 5.87620 34943 ft 403 kts 196°
2026-05-05 10:26 45.15292 5.85923 34943 ft 403 kts 196°
2026-05-05 10:26 45.09798 5.84225 34944 ft 402 kts 197°
2026-05-05 10:27 45.04368 5.82547 34946 ft 402 kts 196°
2026-05-05 10:27 44.98900 5.80861 34947 ft 402 kts 197°
2026-05-05 10:28 44.93444 5.79181 34951 ft 403 kts 197°
2026-05-05 10:28 44.88108 5.77544 34964 ft 402 kts 197°
2026-05-05 10:29 44.82637 5.75867 34963 ft 402 kts 197°
2026-05-05 10:29 44.77165 5.74196 34967 ft 402 kts 197°
2026-05-05 10:30 44.71715 5.72532 34957 ft 400 kts 197°
2026-05-05 10:30 44.66262 5.70871 34958 ft 401 kts 197°
2026-05-05 10:31 44.60825 5.69221 34959 ft 400 kts 197°
2026-05-05 10:31 44.55368 5.67566 34958 ft 400 kts 197°
2026-05-05 10:32 44.49918 5.65922 34954 ft 400 kts 197°
2026-05-05 10:32 44.44492 5.64282 34951 ft 399 kts 197°
2026-05-05 10:33 44.39067 5.62483 34947 ft 398 kts 200°
2026-05-05 10:33 44.33854 5.60010 34941 ft 395 kts 205°
2026-05-05 10:34 44.28733 5.57205 34944 ft 395 kts 205°
2026-05-05 10:34 44.23620 5.54426 34938 ft 395 kts 205°
2026-05-05 10:35 44.18509 5.51643 34941 ft 394 kts 205°
2026-05-05 10:35 44.13405 5.48864 34935 ft 394 kts 205°
2026-05-05 10:36 44.08302 5.46094 34938 ft 394 kts 206°
2026-05-05 10:36 44.03164 5.43306 34934 ft 394 kts 205°
2026-05-05 10:37 43.98064 5.40544 34932 ft 393 kts 205°
2026-05-05 10:37 43.92956 5.37769 34933 ft 393 kts 206°
2026-05-05 10:38 43.88079 5.35126 34934 ft 392 kts 206°
2026-05-05 10:38 43.83061 5.32415 34933 ft 394 kts 205°
2026-05-05 10:39 43.77944 5.29657 34934 ft 394 kts 205°
2026-05-05 10:39 43.72823 5.26905 34933 ft 393 kts 205°
2026-05-05 10:40 43.67739 5.24175 34935 ft 394 kts 205°
2026-05-05 10:40 43.62624 5.21440 34940 ft 394 kts 205°
2026-05-05 10:41 43.57498 5.18700 34943 ft 394 kts 205°
2026-05-05 10:41 43.52401 5.15987 34947 ft 394 kts 205°
2026-05-05 10:42 43.44711 5.11890 34953 ft 395 kts 205°
2026-05-05 10:43 43.39728 5.08827 34948 ft 392 kts 210°
2026-05-05 10:43 43.35002 5.05126 34948 ft 391 kts 215°
2026-05-05 10:44 43.30506 5.00946 34948 ft 391 kts 217°
2026-05-05 10:44 43.26020 4.96752 34950 ft 391 kts 217°
2026-05-05 10:45 43.21531 4.92546 34952 ft 391 kts 217°
2026-05-05 10:45 43.17052 4.88352 34946 ft 390 kts 217°
2026-05-05 10:46 43.12589 4.84180 34959 ft 391 kts 217°
2026-05-05 10:46 43.08088 4.79977 34951 ft 390 kts 217°
2026-05-05 10:47 43.03474 4.76056 34953 ft 392 kts 212°
2026-05-05 10:47 42.98741 4.72459 34954 ft 392 kts 213°
2026-05-05 10:48 42.93969 4.68823 34951 ft 391 kts 212°
2026-05-05 10:48 42.89316 4.65297 34953 ft 391 kts 212°
2026-05-05 10:49 42.84531 4.61678 34948 ft 395 kts 213°
2026-05-05 10:49 42.79726 4.58054 34949 ft 396 kts 212°
2026-05-05 10:50 42.74920 4.54440 34945 ft 395 kts 212°
2026-05-05 10:50 42.70096 4.50813 34943 ft 395 kts 212°
2026-05-05 10:51 42.65266 4.47195 34946 ft 396 kts 212°
2026-05-05 10:51 42.60455 4.43594 34944 ft 396 kts 213°
2026-05-05 10:52 42.55640 4.39997 34949 ft 395 kts 213°
2026-05-05 10:52 42.50845 4.36420 34954 ft 395 kts 213°
2026-05-05 10:53 42.46023 4.32833 34957 ft 396 kts 212°
2026-05-05 10:53 42.41193 4.29242 34957 ft 395 kts 212°
2026-05-05 10:54 42.36392 4.25684 34957 ft 395 kts 212°
2026-05-05 10:54 42.31561 4.22106 34964 ft 399 kts 212°
2026-05-05 10:55 42.26671 4.18494 34960 ft 400 kts 212°
2026-05-05 10:55 42.21778 4.14889 34964 ft 400 kts 212°
2026-05-05 10:56 42.16909 4.11304 34965 ft 400 kts 212°
2026-05-05 10:56 42.12016 4.07700 34959 ft 401 kts 212°
2026-05-05 10:57 42.07148 4.04131 34963 ft 401 kts 212°
2026-05-05 10:57 42.02248 4.00543 34952 ft 401 kts 212°
2026-05-05 10:58 41.97281 3.97119 34951 ft 404 kts 208°
2026-05-05 10:58 41.91825 3.94962 34955 ft 412 kts 197°
2026-05-05 10:59 41.86328 3.93534 34956 ft 413 kts 197°
2026-05-05 10:59 41.80671 3.92085 34955 ft 413 kts 197°
2026-05-05 11:00 41.75045 3.90648 34952 ft 411 kts 197°
2026-05-05 11:00 41.69396 3.89207 34953 ft 412 kts 197°
2026-05-05 11:01 41.63781 3.87776 34951 ft 412 kts 197°
2026-05-05 11:01 41.58154 3.86346 34954 ft 411 kts 197°
2026-05-05 11:02 41.52552 3.84924 34953 ft 411 kts 197°
2026-05-05 11:02 41.46927 3.83498 34953 ft 410 kts 197°
2026-05-05 11:03 41.41313 3.82078 34954 ft 410 kts 197°
2026-05-05 11:03 41.35721 3.80669 34953 ft 410 kts 198°
2026-05-05 11:04 41.30136 3.79265 34953 ft 410 kts 198°
2026-05-05 11:04 41.24522 3.77855 34954 ft 410 kts 198°
2026-05-05 11:05 41.18959 3.76430 34953 ft 408 kts 199°
2026-05-05 11:05 41.13480 3.74513 34951 ft 402 kts 204°
2026-05-05 11:06 41.08276 3.71984 34949 ft 399 kts 207°
2026-05-05 11:06 41.03108 3.69343 34947 ft 398 kts 207°
2026-05-05 11:06 41.00545 3.68035 34781 ft 394 kts 207°
2026-05-05 11:07 40.97988 3.66728 34239 ft 393 kts 207°
2026-05-05 11:07 40.95436 3.65418 33314 ft 397 kts 207°
2026-05-05 11:07 40.92856 3.64093 32328 ft 401 kts 207°
2026-05-05 11:07 40.90281 3.62770 31344 ft 405 kts 207°
2026-05-05 11:08 40.87647 3.61420 30363 ft 408 kts 207°
2026-05-05 11:08 40.84986 3.60056 29420 ft 411 kts 207°
2026-05-05 11:08 40.82318 3.58691 28444 ft 415 kts 207°
2026-05-05 11:08 40.79630 3.57314 27418 ft 419 kts 206°
2026-05-05 11:09 40.76923 3.55931 26372 ft 423 kts 206°
2026-05-05 11:09 40.74198 3.54542 25690 ft 417 kts 206°
2026-05-05 11:09 40.71550 3.53199 25462 ft 403 kts 206°
2026-05-05 11:09 40.68971 3.51895 25046 ft 395 kts 206°
2026-05-05 11:10 40.66408 3.50594 24422 ft 391 kts 206°
2026-05-05 11:10 40.63891 3.49313 23767 ft 389 kts 206°
2026-05-05 11:10 40.61361 3.48081 23132 ft 388 kts 204°
2026-05-05 11:10 40.58834 3.46953 22511 ft 385 kts 203°
2026-05-05 11:11 40.56281 3.45838 21868 ft 383 kts 203°
2026-05-05 11:11 40.53760 3.44738 21249 ft 380 kts 203°
2026-05-05 11:11 40.51285 3.43655 20641 ft 378 kts 203°
2026-05-05 11:11 40.48797 3.42565 20035 ft 376 kts 203°
2026-05-05 11:12 40.46316 3.41478 19420 ft 373 kts 203°
2026-05-05 11:12 40.43887 3.40414 18820 ft 372 kts 203°
2026-05-05 11:12 40.41441 3.39340 18228 ft 369 kts 202°
2026-05-05 11:12 40.38999 3.38271 17654 ft 367 kts 202°
2026-05-05 11:13 40.36617 3.37227 17064 ft 365 kts 202°
2026-05-05 11:13 40.34217 3.36176 16505 ft 362 kts 202°
2026-05-05 11:13 40.31826 3.35130 15942 ft 359 kts 202°
2026-05-05 11:13 40.29459 3.34095 15370 ft 358 kts 201°
2026-05-05 11:14 40.27134 3.33080 14804 ft 356 kts 201°
2026-05-05 11:14 40.24806 3.32062 14275 ft 353 kts 201°
2026-05-05 11:14 40.22464 3.31042 13741 ft 351 kts 201°
2026-05-05 11:14 40.20180 3.30045 13205 ft 349 kts 200°
2026-05-05 11:15 40.17871 3.29039 12641 ft 347 kts 200°
2026-05-05 11:15 40.15580 3.28042 12074 ft 346 kts 200°
2026-05-05 11:15 40.13335 3.27067 11745 ft 343 kts 200°
2026-05-05 11:15 40.11062 3.26078 11497 ft 345 kts 200°
2026-05-05 11:16 40.08763 3.25080 11242 ft 345 kts 200°
2026-05-05 11:16 40.06492 3.24094 10991 ft 344 kts 200°
2026-05-05 11:16 40.04236 3.23116 10762 ft 341 kts 200°
2026-05-05 11:16 40.02025 3.22159 10511 ft 331 kts 199°
2026-05-05 11:17 39.99900 3.21240 10354 ft 318 kts 199°
2026-05-05 11:17 39.97837 3.20350 10219 ft 305 kts 199°
2026-05-05 11:17 39.95867 3.19500 10122 ft 291 kts 199°
2026-05-05 11:17 39.93993 3.18691 10039 ft 278 kts 199°
2026-05-05 11:18 39.92172 3.17906 9694 ft 269 kts 200°
2026-05-05 11:18 39.90418 3.17149 9322 ft 265 kts 200°
2026-05-05 11:18 39.88675 3.16396 8949 ft 263 kts 199°
2026-05-05 11:18 39.86928 3.15643 8579 ft 262 kts 199°
2026-05-05 11:19 39.85206 3.14900 8210 ft 261 kts 199°
2026-05-05 11:19 39.83494 3.14163 7842 ft 260 kts 199°
2026-05-05 11:19 39.81785 3.13399 7476 ft 259 kts 202°
2026-05-05 11:19 39.80137 3.12441 7102 ft 258 kts 206°
2026-05-05 11:20 39.78517 3.11409 6650 ft 261 kts 207°
2026-05-05 11:20 39.76897 3.10358 6191 ft 263 kts 207°
2026-05-05 11:20 39.75255 3.09286 5820 ft 262 kts 207°
2026-05-05 11:20 39.73635 3.08226 5458 ft 261 kts 207°
2026-05-05 11:21 39.72033 3.07162 5116 ft 254 kts 209°
2026-05-05 11:21 39.70562 3.05974 4869 ft 245 kts 216°
2026-05-05 11:21 39.69260 3.04608 4724 ft 235 kts 224°
2026-05-05 11:21 39.68222 3.03037 4589 ft 226 kts 233°
2026-05-05 11:22 39.67394 3.01342 4318 ft 223 kts 238°
2026-05-05 11:22 39.66629 2.99616 4030 ft 221 kts 238°
2026-05-05 11:22 39.65882 2.97956 3750 ft 219 kts 238°
2026-05-05 11:22 39.65104 2.96280 3473 ft 217 kts 237°
2026-05-05 11:23 39.64314 2.94614 3191 ft 212 kts 236°
2026-05-05 11:23 39.63558 2.93030 3024 ft 203 kts 236°
2026-05-05 11:23 39.62825 2.91499 2720 ft 198 kts 236°
2026-05-05 11:23 39.62116 2.90013 2418 ft 187 kts 236°
2026-05-05 11:24 39.61437 2.88591 2158 ft 187 kts 236°
2026-05-05 11:24 39.60755 2.87161 1915 ft 188 kts 236°
2026-05-05 11:24 39.60076 2.85731 1706 ft 182 kts 236°
2026-05-05 11:24 39.59432 2.84372 1460 ft 169 kts 236°
2026-05-05 11:25 39.58839 2.83122 1226 ft 156 kts 236°
2026-05-05 11:25 39.58287 2.81960 1025 ft 150 kts 237°
2026-05-05 11:25 39.57742 2.80809 849 ft 149 kts 236°
2026-05-05 11:25 39.57202 2.79675 664 ft 147 kts 238°
2026-05-05 11:26 39.56676 2.78547 463 ft 145 kts 238°
2026-05-05 11:26 39.56146 2.77437 270 ft 145 kts 238°
2026-05-05 11:26 39.55619 2.76328 86 ft 145 kts 236°
2026-05-05 11:26 39.55121 2.75271 23 ft 128 kts 237°
2026-05-05 11:27 39.54744 2.74481 31 ft 71 kts 238°
2026-05-05 11:27 39.54573 2.74081 41 ft 35 kts 250°
2026-05-05 11:27 39.54549 2.73811 39 ft 22 kts 271°
2026-05-05 11:27 39.54607 2.73760 40 ft 12 kts 31°
2026-05-05 11:28 39.54659 2.73851 41 ft 13 kts 59°
2026-05-05 11:28 39.54712 2.73965 41 ft 15 kts 59°
2026-05-05 11:28 39.54767 2.74082 39 ft 13 kts 59°
2026-05-05 11:28 39.54832 2.74122 38 ft 10 kts 333°
2026-05-05 11:29 39.54886 2.74079 41 ft 7 kts 328°
2026-05-05 11:29 39.54924 2.74048 44 ft 5 kts 327°
2026-05-05 11:29 39.54972 2.74009 45 ft 11 kts 328°
2026-05-05 11:29 39.55049 2.73950 48 ft 12 kts 329°
2026-05-05 11:30 39.55112 2.73901 49 ft 9 kts 329°
2026-05-05 11:30 39.55169 2.73854 49 ft 9 kts 315°
2026-05-05 11:30 39.55167 2.73782 50 ft 8 kts 260°
2026-05-05 11:30 39.55179 2.73713 50 ft 8 kts 268°
2026-05-05 11:31 39.55177 2.73645 50 ft 7 kts 290°
2026-05-05 11:31 39.55169 2.73578 49 ft 8 kts 240°
2026-05-05 11:31 39.55130 2.73491 42 ft 14 kts 240°
2026-05-05 11:31 39.55084 2.73394 35 ft 11 kts 240°
2026-05-05 11:32 39.55048 2.73367 33 ft 5 kts 163°
2026-05-05 11:32 39.55017 2.73379 34 ft 3 kts 165°
2026-05-05 11:32 39.54995 2.73386 34 ft 2 kts 165°
2026-05-05 11:32 39.54984 2.73390 34 ft 1 kts 165°
2026-05-05 11:33 39.54983 2.73391 34 ft 0 kts 165°